Location: Treviso
(45.6669°N, 12.2430°E)
Time: 07:48:07
(UTC+01:00)

ISS - Pass Details

Date: 13 January 2018
Orbit: 402 x 407 km, 51.6° (Epoch: 21 January)

Event Time Altitude Azimuth Distance (km) Brightness Sun altitude
Exits shadow 05:33:42 46° 90° (E) 557 -2.8 -23.0°
Drops below altitude 10° 05:36:11 10° 109° (ESE) 1,463 0.1 -22.6°
Sets 05:38:16 0° 112° (ESE) 2,322 1.4 -22.3°
